owner,sensor,date,latitude,longitude,vertical_datum,direction_of_sea_water_velocity,sea_water_speed,upward_sea_water_velocity,qcFlag 
TABS,ioos:station:wmo:42050:1,2007-08-09T21:30:00Z,28.8425,-94.2433,2.0,210.0033858,38.99567797,-99999.0,'11111222,11111222,99999999' 
TABS,ioos:station:wmo:42050:1,2007-08-10T16:30:00Z,28.8425,-94.2433,2.0,144.0096692,34.00000735,-99999.0,'11111222,11111222,99999999' 
TABS,ioos:station:wmo:42050:1,2007-08-10T17:00:00Z,28.8425,-94.2433,2.0,147.0000217,34.99580118,-99999.0,'11111222,11111222,99999999' 
TABS,ioos:station:wmo:42050:1,2007-08-10T17:30:00Z,28.8425,-94.2433,2.0,154.9951724,33.99636745,-99999.0,'11111222,11111222,99999999' 
TABS,ioos:station:wmo:42050:1,2007-08-10T18:00:00Z,28.8425,-94.2433,2.0,161.9945025,35.00423546,-99999.0,'11111222,11111222,99999999' 
TABS,ioos:station:wmo:42050:1,2007-08-10T18:30:00Z,28.8425,-94.2433,2.0,168.0008904,38.00024868,-99999.0,'11111222,11111222,99999999' 
TABS,ioos:station:wmo:42050:1,2007-08-10T19:00:00Z,28.8425,-94.2433,2.0,176.0000231,38.99497916,-99999.0,'11111222,11111222,99999999' 
TABS,ioos:station:wmo:42050:1,2007-08-10T19:30:00Z,28.8425,-94.2433,2.0,183.001476,38.00213941,-99999.0,'11111222,11111222,99999999' 
TABS,ioos:station:wmo:42050:1,2007-08-10T20:00:00Z,28.8425,-94.2433,2.0,182.9945037,40.00463223,-99999.0,'11111222,11111222,99999999' 
TABS,ioos:station:wmo:42050:1,2007-08-10T20:30:00Z,28.8425,-94.2433,2.0,188.004278,39.9997125,-99999.0,'11111222,11111222,99999999' 
TABS,ioos:station:wmo:42050:1,2007-08-10T21:00:00Z,28.8425,-94.2433,2.0,205.9973927,41.9998881,-99999.0,'11111222,11111222,99999999' 
TABS,ioos:station:wmo:42050:1,2007-08-10T21:30:00Z,28.8425,-94.2433,2.0,197.0021711,41.99552357,-99999.0,'11111222,11111222,99999999' 
TABS,ioos:station:wmo:42050:1,2007-08-10T22:00:00Z,28.8425,-94.2433,2.0,204.0018826,44.00511334,-99999.0,'11111222,11111222,99999999' 
TABS,ioos:station:wmo:42050:1,2007-08-10T22:30:00Z,28.8425,-94.2433,2.0,204.0014587,42.99788948,-99999.0,'11111222,11111222,99999999' 
TABS,ioos:station:wmo:42050:1,2007-08-10T23:00:00Z,28.8425,-94.2433,2.0,205.9973927,41.9998881,-99999.0,'11111222,11111222,99999999' 
TABS,ioos:station:wmo:42050:1,2007-08-10T23:30:00Z,28.8425,-94.2433,2.0,218.0095723,37.99952105,-99999.0,'11111222,11111222,99999999' 
TABS,ioos:station:wmo:42050:1,2007-08-11T00:00:00Z,28.8425,-94.2433,2.0,248.9979461,30.99928548,-99999.0,'11111222,11111222,99999999' 
TABS,ioos:station:wmo:42050:1,2007-08-11T00:30:00Z,28.8425,-94.2433,2.0,236.0057987,34.00082646,-99999.0,'11111222,11111222,99999999' 
TABS,ioos:station:wmo:42050:1,2007-08-11T01:00:00Z,28.8425,-94.2433,2.0,252.0075683,27.00033333,-99999.0,'11111222,11111222,99999999' 
TABS,ioos:station:wmo:42050:1,2007-08-11T01:30:00Z,28.8425,-94.2433,2.0,275.0002893,27.99653014,-99999.0,'11111222,11111222,99999999' 
TABS,ioos:station:wmo:42050:1,2007-08-11T02:00:00Z,28.8425,-94.2433,2.0,280.9981489,26.99578671,-99999.0,'11111222,11111222,99999999' 
TABS,ioos:station:wmo:42050:1,2007-08-11T02:30:00Z,28.8425,-94.2433,2.0,302.0012311,27.00344608,-99999.0,'11111222,11111222,99999999' 
TABS,ioos:station:wmo:42050:1,2007-08-11T03:00:00Z,28.8425,-94.2433,2.0,311.0033694,27.99881783,-99999.0,'11111222,11111222,99999999' 
TABS,ioos:station:wmo:42050:1,2007-08-11T03:30:00Z,28.8425,-94.2433,2.0,318.0003174,29.99414943,-99999.0,'11111222,11111222,99999999' 
TABS,ioos:station:wmo:42050:1,2007-08-11T04:00:00Z,28.8425,-94.2433,2.0,326.99267,33.99721312,-99999.0,'11111222,11111222,99999999' 
TABS,ioos:station:wmo:42050:1,2007-08-11T04:30:00Z,28.8425,-94.2433,2.0,332.9905522,33.99820142,-99999.0,'11111222,11111222,99999999' 
TABS,ioos:station:wmo:42050:1,2007-08-11T05:00:00Z,28.8425,-94.2433,2.0,328.9978231,33.00491024,-99999.0,'11111222,11111222,99999999' 
TABS,ioos:station:wmo:42050:1,2007-08-11T05:30:00Z,28.8425,-94.2433,2.0,335.9983694,31.00055645,-99999.0,'11111222,11111222,99999999' 
TABS,ioos:station:wmo:42050:1,2007-08-11T06:00:00Z,28.8425,-94.2433,2.0,345.0042399,31.99978906,-99999.0,'11111222,11111222,99999999' 
TABS,ioos:station:wmo:42050:1,2007-08-11T06:30:00Z,28.8425,-94.2433,2.0,354.0008928,30.99978226,-99999.0,'11111222,11111222,99999999' 
TABS,ioos:station:wmo:42050:1,2007-08-11T07:00:00Z,28.8425,-94.2433,2.0,3.004683589,28.99986207,-99999.0,'11111222,11111222,99999999' 
TABS,ioos:station:wmo:42050:1,2007-08-11T07:30:00Z,28.8425,-94.2433,2.0,11.00112188,24.00104164,-99999.0,'11111222,11111222,99999999' 
TABS,ioos:station:wmo:42050:1,2007-08-11T08:00:00Z,28.8425,-94.2433,2.0,20.00089426,24.99765189,-99999.0,'11111222,11111222,99999999' 
TABS,ioos:station:wmo:42050:1,2007-08-11T08:30:00Z,28.8425,-94.2433,2.0,23.99047032,22.99657801,-99999.0,'11111222,11111222,99999999' 
TABS,ioos:station:wmo:42050:1,2007-08-11T09:00:00Z,28.8425,-94.2433,2.0,41.99442152,24.00394134,-99999.0,'11111222,11111222,99999999' 
TABS,ioos:station:wmo:42050:1,2007-08-11T09:30:00Z,28.8425,-94.2433,2.0,56.99638216,25.00490552,-99999.0,'11111222,11111222,99999999' 
TABS,ioos:station:wmo:42050:1,2007-08-11T10:00:00Z,28.8425,-94.2433,2.0,64.99285527,25.00400968,-99999.0,'11111222,11111222,99999999' 
TABS,ioos:station:wmo:42050:1,2007-08-11T10:30:00Z,28.8425,-94.2433,2.0,71.00749004,25.99515339,-99999.0,'11111222,11111222,99999999' 
TABS,ioos:station:wmo:42050:1,2007-08-11T11:00:00Z,28.8425,-94.2433,2.0,76.99621046,27.99800707,-99999.0,'11111222,11111222,99999999' 
TABS,ioos:station:wmo:42050:1,2007-08-11T11:30:00Z,28.8425,-94.2433,2.0,86.00395007,30.99535449,-99999.0,'11111222,11111222,99999999' 
TABS,ioos:station:wmo:42050:1,2007-08-11T12:00:00Z,28.8425,-94.2433,2.0,86.00555197,30.00288319,-99999.0,'11111222,11111222,99999999' 
TABS,ioos:station:wmo:42050:1,2007-08-11T12:30:00Z,28.8425,-94.2433,2.0,94.99695022,30.99781283,-99999.0,'11111222,11111222,99999999' 
TABS,ioos:station:wmo:42050:1,2007-08-11T13:00:00Z,28.8425,-94.2433,2.0,97.99155575,31.00106611,-99999.0,'11111222,11111222,99999999' 
TABS,ioos:station:wmo:42050:1,2007-08-11T13:30:00Z,28.8425,-94.2433,2.0,98.99444994,29.99888331,-99999.0,'11111222,11111222,99999999' 
TABS,ioos:station:wmo:42050:1,2007-08-11T14:00:00Z,28.8425,-94.2433,2.0,110.9963288,30.00204326,-99999.0,'11111222,11111222,99999999' 
TABS,ioos:station:wmo:42050:1,2007-08-11T14:30:00Z,28.8425,-94.2433,2.0,296.0162672,13.99842848,-99999.0,'11111222,11111222,99999999' 
TABS,ioos:station:wmo:42050:1,2007-08-11T15:00:00Z,28.8425,-94.2433,2.0,113.993457,30.00246823,-99999.0,'11111222,11111222,99999999' 
TABS,ioos:station:wmo:42050:1,2007-08-11T15:30:00Z,28.8425,-94.2433,2.0,119.0050616,26.99592932,-99999.0,'11111222,11111222,99999999' 
TABS,ioos:station:wmo:42050:1,2007-08-11T16:00:00Z,28.8425,-94.2433,2.0,134.9998948,26.99733691,-99999.0,'11111222,11111222,99999999' 
TABS,ioos:station:wmo:42050:1,2007-08-11T16:30:00Z,28.8425,-94.2433,2.0,139.987822,27.00059259,-99999.0,'11111222,11111222,99999999' 
TABS,ioos:station:wmo:42050:1,2007-08-11T17:00:00Z,28.8425,-94.2433,2.0,152.9983068,27.00354051,-99999.0,'11111222,11111222,99999999' 
TABS,ioos:station:wmo:42050:1,2007-08-11T17:30:00Z,28.8425,-94.2433,2.0,165.0019784,25.00166794,-99999.0,'11111222,11111222,99999999' 
TABS,ioos:station:wmo:42050:1,2007-08-11T18:00:00Z,28.8425,-94.2433,2.0,196.9987702,25.99576119,-99999.0,'11111222,11111222,99999999' 
TABS,ioos:station:wmo:42050:1,2007-08-11T18:30:00Z,28.8425,-94.2433,2.0,188.0038431,27.00305909,-99999.0,'11111222,11111222,99999999' 
TABS,ioos:station:wmo:42050:1,2007-08-11T19:00:00Z,28.8425,-94.2433,2.0,190.9995551,24.99928999,-99999.0,'11111222,11111222,99999999' 
TABS,ioos:station:wmo:42050:1,2007-08-11T19:30:00Z,28.8425,-94.2433,2.0,197.0008708,33.99564237,-99999.0,'11111222,11111222,99999999' 
TABS,ioos:station:wmo:42050:1,2007-08-11T20:00:00Z,28.8425,-94.2433,2.0,203.0048909,35.00386836,-99999.0,'11111222,11111222,99999999' 
TABS,ioos:station:wmo:42050:1,2007-08-11T20:30:00Z,28.8425,-94.2433,2.0,207.0094478,33.99820142,-99999.0,'11111222,11111222,99999999' 
TABS,ioos:station:wmo:42050:1,2007-08-11T21:00:00Z,28.8425,-94.2433,2.0,212.0050979,35.00007,-99999.0,'11111222,11111222,99999999' 
TABS,ioos:station:wmo:42050:1,2007-08-11T21:30:00Z,28.8425,-94.2433,2.0,210.0033858,38.99567797,-99999.0,'11111222,11111222,99999999' 
TABS,ioos:station:wmo:42050:1,2007-08-11T22:00:00Z,28.8425,-94.2433,2.0,218.9981445,36.99352511,-99999.0,'11111222,11111222,99999999' 
TABS,ioos:station:wmo:42050:1,2007-08-11T22:30:00Z,28.8425,-94.2433,2.0,218.9928129,40.00146247,-99999.0,'11111222,11111222,99999999' 
TABS,ioos:station:wmo:42050:1,2007-08-11T23:00:00Z,28.8425,-94.2433,2.0,224.9996843,39.99395954,-99999.0,'11111222,11111222,99999999' 
TABS,ioos:station:wmo:42050:1,2007-08-11T23:30:00Z,28.8425,-94.2433,2.0,226.9946622,38.9993641,-99999.0,'11111222,11111222,99999999' 
TABS,ioos:station:wmo:42050:1,2007-08-12T00:00:00Z,28.8425,-94.2433,2.0,233.995695,35.9961109,-99999.0,'11111222,11111222,99999999' 
TABS,ioos:station:wmo:42050:1,2007-08-12T00:30:00Z,28.8425,-94.2433,2.0,240.0021044,36.00267212,-99999.0,'11111222,11111222,99999999' 
TABS,ioos:station:wmo:42050:1,2007-08-12T01:00:00Z,28.8425,-94.2433,2.0,178.9972181,4.000612453,-99999.0,'11133222,11111222,99999999' 
TABS,ioos:station:wmo:42050:1,2007-08-12T01:30:00Z,28.8425,-94.2433,2.0,260.005291,33.99588799,-99999.0,'11111222,11111222,99999999' 
TABS,ioos:station:wmo:42050:1,2007-08-12T02:00:00Z,28.8425,-94.2433,2.0,267.0042828,31.00235475,-99999.0,'11111222,11111222,99999999' 
TABS,ioos:station:wmo:42050:1,2007-08-12T02:30:00Z,28.8425,-94.2433,2.0,279.0079516,28.9976068,-99999.0,'11111222,11111222,99999999' 
TABS,ioos:station:wmo:42050:1,2007-08-12T03:00:00Z,28.8425,-94.2433,2.0,296.003706,26.00224798,-99999.0,'11111222,11111222,99999999' 
TABS,ioos:station:wmo:42050:1,2007-08-12T03:30:00Z,28.8425,-94.2433,2.0,312.0127735,26.99867589,-99999.0,'11111222,11111222,99999999' 
TABS,ioos:station:wmo:42050:1,2007-08-12T04:00:00Z,28.8425,-94.2433,2.0,326.9870958,26.99914258,-99999.0,'11111222,11111222,99999999' 
TABS,ioos:station:wmo:42050:1,2007-08-12T04:30:00Z,28.8425,-94.2433,2.0,337.9974554,27.99931606,-99999.0,'11111222,11111222,99999999' 
TABS,ioos:station:wmo:42050:1,2007-08-12T05:00:00Z,28.8425,-94.2433,2.0,350.0013057,33.00125604,-99999.0,'11111222,11111222,99999999' 
TABS,ioos:station:wmo:42050:1,2007-08-12T05:30:00Z,28.8425,-94.2433,2.0,353.9993974,33.00083181,-99999.0,'11111222,11111222,99999999' 
TABS,ioos:station:wmo:42050:1,2007-08-12T06:00:00Z,28.8425,-94.2433,2.0,3.005689552,32.99538453,-99999.0,'11111222,11111222,99999999' 
TABS,ioos:station:wmo:42050:1,2007-08-12T06:30:00Z,28.8425,-94.2433,2.0,11.99489239,31.99863278,-99999.0,'11111222,11111222,99999999' 
TABS,ioos:station:wmo:42050:1,2007-08-12T07:00:00Z,28.8425,-94.2433,2.0,18.00680708,32.99612705,-99999.0,'11111222,11111222,99999999' 
TABS,ioos:station:wmo:42050:1,2007-08-12T07:30:00Z,28.8425,-94.2433,2.0,29.99913187,33.00100605,-99999.0,'11111222,11111222,99999999' 
TABS,ioos:station:wmo:42050:1,2007-08-12T08:00:00Z,28.8425,-94.2433,2.0,39.0073299,33.99965294,-99999.0,'11111222,11111222,99999999' 
TABS,ioos:station:wmo:42050:1,2007-08-12T08:30:00Z,28.8425,-94.2433,2.0,53.00248675,34.99608692,-99999.0,'11111222,11111222,99999999' 
TABS,ioos:station:wmo:42050:1,2007-08-12T09:00:00Z,28.8425,-94.2433,2.0,53.0079499,29.99806827,-99999.0,'11111222,11111222,99999999' 
TABS,ioos:station:wmo:42050:1,2007-08-12T09:30:00Z,28.8425,-94.2433,2.0,64.99816358,30.0013083,-99999.0,'11111222,11111222,99999999' 
TABS,ioos:station:wmo:42050:1,2007-08-12T10:00:00Z,28.8425,-94.2433,2.0,75.00956784,30.00096665,-99999.0,'11111222,11111222,99999999' 
TABS,ioos:station:wmo:42050:1,2007-08-12T10:30:00Z,28.8425,-94.2433,2.0,86.99552687,28.99986207,-99999.0,'11111222,11111222,99999999' 
TABS,ioos:station:wmo:42050:1,2007-08-12T11:00:00Z,28.8425,-94.2433,2.0,99.00753072,28.9976068,-99999.0,'11111222,11111222,99999999' 
TABS,ioos:station:wmo:42050:1,2007-08-12T11:30:00Z,28.8425,-94.2433,2.0,113.0034643,26.99675906,-99999.0,'11111222,11111222,99999999' 
TABS,ioos:station:wmo:42050:1,2007-08-12T12:00:00Z,28.8425,-94.2433,2.0,131.0029485,27.99881783,-99999.0,'11111222,11111222,99999999' 
TABS,ioos:station:wmo:42050:1,2007-08-12T12:30:00Z,28.8425,-94.2433,2.0,141.0015087,22.9938644,-99999.0,'11111222,11111222,99999999' 
TABS,ioos:station:wmo:42050:1,2007-08-12T13:00:00Z,28.8425,-94.2433,2.0,347.0085855,29.00237921,-99999.0,'11111222,11111222,99999999' 
TABS,ioos:station:wmo:42050:1,2007-08-12T13:30:00Z,28.8425,-94.2433,2.0,162.004914,27.99963214,-99999.0,'11111222,11111222,99999999' 
TABS,ioos:station:wmo:42050:1,2007-08-12T14:00:00Z,28.8425,-94.2433,2.0,171.0084306,27.00180179,-99999.0,'11111222,11111222,99999999' 
TABS,ioos:station:wmo:42050:1,2007-08-12T14:30:00Z,28.8425,-94.2433,2.0,188.0021132,26.00320942,-99999.0,'11111222,11111222,99999999' 
TABS,ioos:station:wmo:42050:1,2007-08-12T15:00:00Z,28.8425,-94.2433,2.0,184.9901973,30.00373643,-99999.0,'11111222,11111222,99999999' 
TABS,ioos:station:wmo:42050:1,2007-08-12T15:30:00Z,28.8425,-94.2433,2.0,230.0015782,24.00577014,-99999.0,'11111222,11111222,99999999' 
TABS,ioos:station:wmo:42050:1,2007-08-12T16:00:00Z,28.8425,-94.2433,2.0,195.0036562,28.00473174,-99999.0,'11111222,11111222,99999999' 
TABS,ioos:station:wmo:42050:1,2007-08-12T16:30:00Z,28.8425,-94.2433,2.0,207.0051977,31.99907811,-99999.0,'11111222,11111222,99999999' 
TABS,ioos:station:wmo:42050:1,2007-08-12T17:00:00Z,28.8425,-94.2433,2.0,226.9998378,30.99723375,-99999.0,'11111222,11111222,99999999' 
TABS,ioos:station:wmo:42050:1,2007-08-12T17:30:00Z,28.8425,-94.2433,2.0,223.9928778,32.99869694,-99999.0,'11111222,11111222,99999999' 
TABS,ioos:station:wmo:42050:1,2007-08-12T18:00:00Z,28.8425,-94.2433,2.0,230.9924596,33.99965294,-99999.0,'11111222,11111222,99999999' 
TABS,ioos:station:wmo:42050:1,2007-08-12T18:30:00Z,28.8425,-94.2433,2.0,236.9920386,33.99721312,-99999.0,'11111222,11111222,99999999' 
TABS,ioos:station:wmo:42050:1,2007-08-12T19:00:00Z,28.8425,-94.2433,2.0,243.0075496,36.0016944,-99999.0,'11111222,11111222,99999999' 
TABS,ioos:station:wmo:42050:1,2007-08-12T19:30:00Z,28.8425,-94.2433,2.0,247.9990698,38.99997051,-99999.0,'11111222,11111222,99999999' 
TABS,ioos:station:wmo:42050:1,2007-08-12T20:00:00Z,28.8425,-94.2433,2.0,254.9943854,37.00167564,-99999.0,'11111222,11111222,99999999' 
TABS,ioos:station:wmo:42050:1,2007-08-12T20:30:00Z,28.8425,-94.2433,2.0,253.9997358,39.00080256,-99999.0,'11111222,11111222,99999999' 
TABS,ioos:station:wmo:42050:1,2007-08-12T21:00:00Z,28.8425,-94.2433,2.0,215.0023281,30.99645948,-99999.0,'11111222,11111222,99999999' 
TABS,ioos:station:wmo:42050:1,2007-08-12T21:30:00Z,28.8425,-94.2433,2.0,308.0102037,37.99952105,-99999.0,'11111222,11111222,99999999' 
TABS,ioos:station:wmo:42050:1,2007-08-12T22:00:00Z,28.8425,-94.2433,2.0,270.0004209,39.0,-99999.0,'11111222,11111222,99999999' 
TABS,ioos:station:wmo:42050:1,2007-08-12T22:30:00Z,28.8425,-94.2433,2.0,273.0021074,38.00213941,-99999.0,'11111222,11111222,99999999' 
TABS,ioos:station:wmo:42050:1,2007-08-12T23:00:00Z,28.8425,-94.2433,2.0,287.9695186,7.001514122,-99999.0,'11133222,11111222,99999999' 
TABS,ioos:station:wmo:42050:1,2007-08-12T23:30:00Z,28.8425,-94.2433,2.0,287.9986021,38.99834099,-99999.0,'11111222,11111222,99999999' 
TABS,ioos:station:wmo:42050:1,2007-08-13T00:00:00Z,28.8425,-94.2433,2.0,297.0016628,37.00352551,-99999.0,'11111222,11111222,99999999' 
TABS,ioos:station:wmo:42050:1,2007-08-13T00:30:00Z,28.8425,-94.2433,2.0,303.0046176,38.00245913,-99999.0,'11111222,11111222,99999999' 
TABS,ioos:station:wmo:42050:1,2007-08-13T01:00:00Z,28.8425,-94.2433,2.0,308.004708,40.00184121,-99999.0,'11111222,11111222,99999999' 
TABS,ioos:station:wmo:42050:1,2007-08-13T01:30:00Z,28.8425,-94.2433,2.0,315.0003157,36.99582679,-99999.0,'11111222,11111222,99999999' 
TABS,ioos:station:wmo:42050:1,2007-08-13T02:00:00Z,28.8425,-94.2433,2.0,325.9961243,43.0037789,-99999.0,'11111222,11111222,99999999' 
TABS,ioos:station:wmo:42050:1,2007-08-13T02:30:00Z,28.8425,-94.2433,2.0,330.0034591,44.00422821,-99999.0,'11111222,11111222,99999999' 
TABS,ioos:station:wmo:42050:1,2007-08-13T03:00:00Z,28.8425,-94.2433,2.0,338.9992075,44.00294649,-99999.0,'11111222,11111222,99999999' 
TABS,ioos:station:wmo:42050:1,2007-08-13T03:30:00Z,28.8425,-94.2433,2.0,346.9978943,50.00200896,-99999.0,'11111222,11111222,99999999' 
TABS,ioos:station:wmo:42050:1,2007-08-13T04:00:00Z,28.8425,-94.2433,2.0,350.9978172,50.99820879,-99999.0,'11111222,11111222,99999999' 
TABS,ioos:station:wmo:42050:1,2007-08-13T04:30:00Z,28.8425,-94.2433,2.0,357.0019075,52.00118556,-99999.0,'11111222,11111222,99999999' 
TABS,ioos:station:wmo:42050:1,2007-08-13T05:00:00Z,28.8425,-94.2433,2.0,5.000843363,53.00173959,-99999.0,'11111222,11111222,99999999' 
TABS,ioos:station:wmo:42050:1,2007-08-13T05:30:00Z,28.8425,-94.2433,2.0,8.99664685,54.99656717,-99999.0,'11111222,11111222,99999999' 
TABS,ioos:station:wmo:42050:1,2007-08-13T06:00:00Z,28.8425,-94.2433,2.0,14.99968512,57.99603866,-99999.0,'11111222,11111222,99999999' 
TABS,ioos:station:wmo:42050:1,2007-08-13T06:30:00Z,28.8425,-94.2433,2.0,20.0035262,57.99892758,-99999.0,'11111222,11111222,99999999' 
TABS,ioos:station:wmo:42050:1,2007-08-13T07:00:00Z,28.8425,-94.2433,2.0,24.00178265,54.99522252,-99999.0,'11111222,11111222,99999999' 
TABS,ioos:station:wmo:42050:1,2007-08-13T07:30:00Z,28.8425,-94.2433,2.0,29.99818245,64.00378817,-99999.0,'11111222,11111222,99999999' 
TABS,ioos:station:wmo:42050:1,2007-08-13T08:00:00Z,28.8425,-94.2433,2.0,36.00292727,60.00087083,-99999.0,'11111222,11111222,99999999' 
TABS,ioos:station:wmo:42050:1,2007-08-13T08:30:00Z,28.8425,-94.2433,2.0,38.99994897,60.00145415,-99999.0,'11111222,11111222,99999999' 
TABS,ioos:station:wmo:42050:1,2007-08-13T09:00:00Z,28.8425,-94.2433,2.0,45.00010523,59.00098982,-99999.0,'11111222,11111222,99999999' 
TABS,ioos:station:wmo:42050:1,2007-08-13T09:30:00Z,28.8425,-94.2433,2.0,48.00376012,56.00201157,-99999.0,'11111222,11111222,99999999' 
TABS,ioos:station:wmo:42050:1,2007-08-13T10:00:00Z,28.8425,-94.2433,2.0,63.00261933,48.00080208,-99999.0,'11111222,11111222,99999999' 
TABS,ioos:station:wmo:42050:1,2007-08-13T10:30:00Z,28.8425,-94.2433,2.0,62.99889647,47.00351051,-99999.0,'11111222,11111222,99999999' 
TABS,ioos:station:wmo:42050:1,2007-08-13T11:00:00Z,28.8425,-94.2433,2.0,211.9995776,22.0034361,-99999.0,'11111222,11111222,99999999' 
TABS,ioos:station:wmo:42050:1,2007-08-13T11:30:00Z,28.8425,-94.2433,2.0,74.99481447,38.00591664,-99999.0,'11111222,11111222,99999999' 
TABS,ioos:station:wmo:42050:1,2007-08-13T12:00:00Z,28.8425,-94.2433,2.0,86.00171116,35.99761381,-99999.0,'11111222,11111222,99999999' 
TABS,ioos:station:wmo:42050:1,2007-08-13T12:30:00Z,28.8425,-94.2433,2.0,99.00749685,35.0016471,-99999.0,'11111222,11111222,99999999' 
TABS,ioos:station:wmo:42050:1,2007-08-13T13:00:00Z,28.8425,-94.2433,2.0,100.9915377,30.00034833,-99999.0,'11111222,11111222,99999999' 
TABS,ioos:station:wmo:42050:1,2007-08-13T13:30:00Z,28.8425,-94.2433,2.0,98.00565988,28.00290878,-99999.0,'11111222,11111222,99999999' 
TABS,ioos:station:wmo:42050:1,2007-08-13T14:00:00Z,28.8425,-94.2433,2.0,174.0090559,22.99558436,-99999.0,'11111222,11111222,99999999' 
TABS,ioos:station:wmo:42050:1,2007-08-13T14:30:00Z,28.8425,-94.2433,2.0,195.0155438,20.99695216,-99999.0,'11111222,11111222,99999999' 
TABS,ioos:station:wmo:42050:1,2007-08-13T15:00:00Z,28.8425,-94.2433,2.0,211.9995776,22.0034361,-99999.0,'11111222,11111222,99999999' 
TABS,ioos:station:wmo:42050:1,2007-08-13T15:30:00Z,28.8425,-94.2433,2.0,230.0015782,24.00577014,-99999.0,'11111222,11111222,99999999' 
TABS,ioos:station:wmo:42050:1,2007-08-13T16:00:00Z,28.8425,-94.2433,2.0,237.0048114,24.00087082,-99999.0,'11111222,11111222,99999999' 
TABS,ioos:station:wmo:42050:1,2007-08-13T16:30:00Z,28.8425,-94.2433,2.0,243.0044918,28.00083213,-99999.0,'11111222,11111222,99999999' 
TABS,ioos:station:wmo:42050:1,2007-08-13T17:00:00Z,28.8425,-94.2433,2.0,250.9852176,10.00595822,-99999.0,'11111222,11111222,99999999' 
TABS,ioos:station:wmo:42050:1,2007-08-13T17:30:00Z,28.8425,-94.2433,2.0,260.0022438,24.9996,-99999.0,'11111222,11111222,99999999' 
TABS,ioos:station:wmo:42050:1,2007-08-13T18:00:00Z,28.8425,-94.2433,2.0,311.0033694,27.99881783,-99999.0,'11111222,11111222,99999999' 
TABS,ioos:station:wmo:42050:1,2007-08-13T18:30:00Z,28.8425,-94.2433,2.0,260.9920822,35.0016471,-99999.0,'11111222,11111222,99999999' 
TABS,ioos:station:wmo:42050:1,2007-08-13T19:00:00Z,28.8425,-94.2433,2.0,268.9920699,29.00448414,-99999.0,'11111222,11111222,99999999' 
TABS,ioos:station:wmo:42050:1,2007-08-13T19:30:00Z,28.8425,-94.2433,2.0,320.9969942,30.99948709,-99999.0,'11111222,11111222,99999999' 
TABS,ioos:station:wmo:42050:1,2007-08-13T20:00:00Z,28.8425,-94.2433,2.0,279.0079178,35.0016471,-99999.0,'11111222,11111222,99999999' 
TABS,ioos:station:wmo:42050:1,2007-08-13T20:30:00Z,28.8425,-94.2433,2.0,279.0065317,32.0045653,-99999.0,'11111222,11111222,99999999' 
TABS,ioos:station:wmo:42050:1,2007-08-13T21:00:00Z,28.8425,-94.2433,2.0,278.9970194,36.00292349,-99999.0,'11111222,11111222,99999999' 
TABS,ioos:station:wmo:42050:1,2007-08-13T21:30:00Z,28.8425,-94.2433,2.0,281.9850237,3.997123966,-99999.0,'11133222,11111222,99999999' 
TABS,ioos:station:wmo:42050:1,2007-08-13T22:00:00Z,28.8425,-94.2433,2.0,285.0056146,37.00167564,-99999.0,'11111222,11111222,99999999' 
TABS,ioos:station:wmo:42050:1,2007-08-13T22:30:00Z,28.8425,-94.2433,2.0,288.0037392,34.00493641,-99999.0,'11111222,11111222,99999999' 
TABS,ioos:station:wmo:42050:1,2007-08-13T23:00:00Z,28.8425,-94.2433,2.0,283.994521,32.99940606,-99999.0,'11111222,11111222,99999999' 
TABS,ioos:station:wmo:42050:1,2007-08-13T23:30:00Z,28.8425,-94.2433,2.0,302.0057293,35.00007,-99999.0,'11111222,11111222,99999999' 
TABS,ioos:station:wmo:42050:1,2007-08-14T14:30:00Z,28.8425,-94.2433,2.0,113.0013416,28.99525823,-99999.0,'11111222,11111222,99999999' 
TABS,ioos:station:wmo:42050:1,2007-08-14T15:00:00Z,28.8425,-94.2433,2.0,119.9962507,26.00289215,-99999.0,'11111222,11111222,99999999' 
TABS,ioos:station:wmo:42050:1,2007-08-14T15:30:00Z,28.8425,-94.2433,2.0,131.0036208,21.00264031,-99999.0,'11111222,11111222,99999999' 
TABS,ioos:station:wmo:42050:1,2007-08-14T16:30:00Z,28.8425,-94.2433,2.0,148.9840868,17.00066175,-99999.0,'11111222,11111222,99999999' 
TABS,ioos:station:wmo:42050:1,2007-08-14T17:00:00Z,28.8425,-94.2433,2.0,155.0122509,12.99648029,-99999.0,'11111222,11111222,99999999' 
TABS,ioos:station:wmo:42050:1,2007-08-14T17:30:00Z,28.8425,-94.2433,2.0,171.0000938,10.99536266,-99999.0,'11111222,11111222,99999999' 
TABS,ioos:station:wmo:42050:1,2007-08-14T18:00:00Z,28.8425,-94.2433,2.0,186.0006026,11.00027727,-99999.0,'11111222,11111222,99999999' 
TABS,ioos:station:wmo:42050:1,2007-08-14T20:00:00Z,28.8425,-94.2433,2.0,207.0132259,23.9982166,-99999.0,'11111222,11111222,99999999' 
TABS,ioos:station:wmo:42050:1,2007-08-15T07:00:00Z,28.8425,-94.2433,2.0,5.005302265,40.00253242,-99999.0,'11111222,11111222,99999999' 
TABS,ioos:station:wmo:42050:1,2007-08-15T07:30:00Z,28.8425,-94.2433,2.0,8.995832371,44.00120453,-99999.0,'11111222,11111222,99999999' 
TABS,ioos:station:wmo:42050:1,2007-08-15T08:00:00Z,28.8425,-94.2433,2.0,10.9949621,41.00262065,-99999.0,'11111222,11111222,99999999' 
TABS,ioos:station:wmo:42050:1,2007-08-15T08:30:00Z,28.8425,-94.2433,2.0,14.99925468,42.0009738,-99999.0,'11111222,11111222,99999999' 
TABS,ioos:station:wmo:42050:1,2007-08-15T09:00:00Z,28.8425,-94.2433,2.0,22.99928184,42.99786506,-99999.0,'11111222,11111222,99999999' 
TABS,ioos:station:wmo:42050:1,2007-08-15T09:30:00Z,28.8425,-94.2433,2.0,24.0018506,45.99722274,-99999.0,'11111222,11111222,99999999' 
TABS,ioos:station:wmo:42050:1,2007-08-15T10:00:00Z,28.8425,-94.2433,2.0,35.00332563,41.99628674,-99999.0,'11111222,11111222,99999999' 
TABS,ioos:station:wmo:42050:1,2007-08-15T10:30:00Z,28.8425,-94.2433,2.0,44.00848732,37.99853813,-99999.0,'11111222,11111222,99999999' 
TABS,ioos:station:wmo:42050:1,2007-08-15T11:00:00Z,28.8425,-94.2433,2.0,52.99474634,32.99609219,-99999.0,'11111222,11111222,99999999' 